Wind_Speed
30 29 27 24 26 29 32 34 36 37 38 39 42 49 57 63 72 79 91 93 91 102 115 112 113 111 112 108 107 108 104 96 92 91 88 88 84 84 82 78 75 76 71 67 61
32 30 27 24 28 30 33 35 39 40 41 41 45 51 58 65 64 67 75 91 101 92 99 115 112 114 111 112 110 109 106 97 99 96 96 93 92 87 85 82 81 82 76 74 73
30 30 28 28 31 33 34 36 39 41 42 42 47 52 57 65 57 50 54 71 92 102 98 108 118 114 112 110 111 110 106 106 104 104 102 104 99 89 89 87 85 83 83 78 78
29 29 29 34 37 36 37 39 39 40 41 43 47 51 55 62 54 37 38 51 76 102 103 105 114 111 111 108 109 111 111 112 109 109 109 104 103 94 90 84 88 89 86 82 78
31 32 32 36 36 37 39 38 38 39 41 43 46 48 51 60 52 30 28 40 59 96 106 111 111 109 107 108 109 107 111 114 115 114 112 105 101 98 93 94 88 87 86 84 83
32 34 37 35 37 38 40 39 36 38 41 42 41 43 48 55 52 33 20 32 51 79 103 108 110 107 106 103 104 104 109 113 113 112 111 107 108 108 101 96 94 92 91 85 84
36 35 36 36 37 39 39 38 38 39 38 38 37 36 43 52 55 37 15 24 42 63 92 102 108 102 102 98 98 99 102 106 115 114 110 110 110 106 107 104 97 88 89 90 91
36 39 35 36 36 36 35 36 39 37 34 33 32 31 36 46 52 43 23 13 32 53 79 93 98 97 96 94 92 93 96 99 103 110 113 113 108 110 109 109 105 99 97 92 88
35 38 38 34 37 38 35 33 33 31 29 29 29 27 28 39 46 46 31 9 22 46 66 81 88 89 90 88 86 87 88 91 97 99 106 112 111 111 113 112 109 106 106 103 94
43 34 38 38 35 36 32 30 30 28 27 28 27 26 21 25 36 41 33 18 8 30 52 66 75 79 82 82 81 80 82 88 92 95 95 94 101 107 110 111 109 108 113 114 107
48 38 38 39 39 33 31 25 27 27 27 25 27 26 16 19 25 31 32 21 8 16 35 55 61 69 74 77 79 78 78 76 81 87 87 90 93 96 100 99 103 107 110 115 117
47 42 34 37 39 38 35 29 26 31 26 23 26 26 20 14 14 17 26 23 11 9 23 36 47 58 66 69 73 74 71 75 80 83 82 85 88 90 92 95 95 98 104 107 117
45 45 35 36 34 39 39 37 33 30 25 28 27 27 25 16 12 8 11 21 18 6 13 28 41 47 53 60 67 70 69 70 71 74 76 78 82 88 90 92 95 97 100 102 104
47 44 38 31 36 33 34 37 40 38 31 24 31 30 29 25 17 12 9 8 17 16 6 12 25 37 45 50 59 63 66 67 66 65 66 69 73 78 84 86 88 92 94 95 100
48 48 42 31 32 36 36 34 35 38 40 33 22 32 32 31 26 19 17 16 14 9 15 12 10 25 34 42 51 56 61 62 62 63 65 63 66 68 73 78 82 86 91 93 93
49 47 43 39 31 34 39 37 39 37 37 41 37 29 36 32 31 26 25 24 22 20 19 17 16 17 21 28 40 50 53 57 59 63 60 63 65 64 70 73 75 77 79 81 88
43 49 46 46 35 36 35 41 42 43 43 41 44 38 35 41 37 34 31 32 30 26 28 28 27 28 26 26 28 33 39 46 55 60 59 65 66 67 72 74 75 73 74 76 80
38 48 46 46 40 38 40 44 40 43 44 43 38 47 45 39 44 43 40 39 38 36 33 33 33 38 38 35 37 35 35 36 38 42 48 51 57 63 69 73 71 75 77 78 81
38 46 46 43 44 37 39 39 47 45 44 48 46 43 47 51 48 44 49 50 47 45 42 42 42 43 39 43 44 44 42 46 46 45 43 45 45 47 53 56 58 60 65 68 66
39 42 41 44 42 41 39 36 35 39 47 47 52 52 48 48 53 57 51 50 57 52 51 55 47 50 50 47 46 49 53 54 53 52 50 48 50 54 60 53 56 57 60 57 59
41 41 40 42 41 41 40 38 35 36 40 45 49 51 53 55 54 56 58 59 57 57 59 62 56 55 57 56 55 55 54 57 60 59 59 58 58 60 60 60 62 63 64 63 63
44 41 41 40 42 41 39 40 39 35 38 41 43 47 51 55 57 61 66 63 67 66 62 62 60 60 62 62 61 63 64 65 63 58 59 63 63 69 67 71 69 71 71 69 66
44 41 39 40 40 38 41 40 42 38 36 39 42 46 52 54 55 59 68 66 68 71 73 70 69 67 67 70 70 68 68 68 68 68 65 70 61 72 74 79 77 79 80 78 76
42 41 39 40 37 38 41 40 40 43 41 41 41 45 52 55 61 63 68 68 70 74 76 78 77 75 73 76 76 74 72 72 73 70 70 71 74 76 75 75 83 86 86 86 85
40 39 35 38 39 41 39 39 40 43 44 47 49 48 50 54 60 64 70 76 76 76 77 79 80 85 81 81 83 80 80 80 79 74 77 78 79 78 81 81 80 82 85 91 91
42 38 37 39 39 40 40 38 41 42 47 50 53 53 53 54 58 64 66 71 72 70 73 76 80 83 83 88 88 87 86 88 87 82 79 78 79 84 85 84 83 84 87 88 90
39 38 39 40 42 44 45 45 46 48 49 51 53 54 54 55 57 61 63 63 64 65 64 66 68 69 70 76 80 81 87 85 84 83 83 82 82 86 83 83 87 89 91 92 90
Wind_Direction
285 282 283 287 288 287 285 281 282 283 281 282 284 284 283 287 287 270 258 249 243 239 230 231 227 227 227 225 227 227 227 228 229 229 229 232 233 240 241 241 240 244 246 247 244
289 282 282 289 290 289 288 289 286 285 287 291 294 298 297 302 293 268 253 243 238 233 232 232 226 226 224 225 225 227 226 227 229 231 231 232 233 238 242 243 242 245 246 243 245
291 289 284 288 295 291 290 297 290 288 291 295 301 306 307 315 305 280 252 236 225 222 222 224 226 223 223 224 226 226 226 228 229 230 231 232 235 234 239 243 246 244 249 246 248
285 282 283 287 285 291 292 296 293 289 294 300 307 312 316 326 320 292 253 234 222 215 211 216 220 222 223 223 224 226 226 226 228 230 232 234 236 234 239 241 245 248 250 252 250
289 289 285 288 287 290 290 294 293 292 297 303 311 317 323 333 334 308 254 233 220 214 209 210 214 216 218 220 223 224 225 227 230 230 231 233 237 238 238 240 243 247 249 251 251
282 289 290 290 290 290 290 293 293 294 298 305 315 322 332 341 346 334 268 230 218 213 210 211 213 213 216 217 220 222 225 226 229 231 232 233 235 236 238 239 242 247 247 249 251
280 277 282 287 285 288 290 293 294 296 299 306 318 326 339 343 351 352 302 231 214 211 209 211 214 214 214 217 219 221 224 227 228 231 233 235 236 237 239 239 241 242 251 253 251
283 278 276 285 288 290 285 284 288 293 299 305 317 327 341 342 351 358 353 244 216 208 208 212 215 216 216 217 220 221 223 226 229 230 232 235 236 239 240 241 242 241 244 250 251
314 275 274 276 283 288 285 284 291 293 298 304 310 319 338 342 345 358 360 332 220 209 207 211 215 217 218 218 220 224 225 227 229 230 232 234 236 239 240 242 243 243 245 245 245
329 288 269 270 272 280 282 287 287 288 293 299 302 310 324 343 341 349 2 353 245 218 215 213 216 219 220 221 222 224 227 229 230 232 233 234 236 240 243 243 243 244 247 249 246
327 313 269 264 268 272 276 287 296 288 283 293 290 300 311 323 340 343 357 4 317 221 219 218 218 222 222 222 225 227 229 233 235 237 236 236 238 240 243 244 245 245 247 249 251
325 323 292 263 261 265 263 262 279 295 288 285 277 280 293 300 316 346 340 359 359 249 220 221 222 223 225 226 227 229 231 234 235 237 238 238 241 242 247 245 245 247 248 251 251
320 321 306 266 263 263 263 255 259 268 282 289 276 261 272 275 282 309 333 335 348 350 239 225 222 224 228 228 229 229 231 234 236 238 240 240 241 244 245 248 246 247 249 249 253
317 318 316 288 259 258 265 262 255 257 255 275 276 253 254 259 260 255 279 293 318 331 324 240 227 225 226 228 230 230 232 234 236 239 240 239 241 244 247 248 249 248 248 250 251
313 314 318 301 269 260 258 263 262 264 252 257 271 262 245 246 250 248 240 245 253 270 300 302 256 231 226 227 229 232 234 237 239 240 240 242 241 247 247 248 249 250 251 253 254
307 307 311 310 281 263 257 252 255 258 257 250 256 266 243 240 244 243 243 241 242 239 241 240 268 264 243 237 234 235 236 238 240 242 242 245 244 245 249 249 249 251 252 256 256
309 303 305 313 295 270 261 254 251 252 253 248 246 253 257 241 238 241 242 245 239 240 244 247 235 236 243 249 243 241 239 241 244 246 245 246 248 246 250 251 252 252 254 255 257
290 306 301 302 302 286 269 258 259 256 252 250 248 249 250 249 251 246 240 237 239 241 241 246 251 248 244 240 239 240 248 250 247 246 242 246 250 251 254 256 256 256 254 254 258
284 302 300 299 304 291 288 269 256 257 254 251 250 247 251 249 250 253 253 243 238 237 241 241 242 247 248 249 248 247 248 250 246 246 245 250 252 252 254 250 252 253 257 257 256
281 287 306 294 296 300 291 287 270 259 257 252 248 248 245 248 252 251 247 248 246 246 242 245 244 247 246 246 250 251 250 251 251 249 252 253 256 258 258 257 258 258 258 259 260
278 276 291 292 288 291 295 291 281 269 261 254 252 250 252 245 245 250 250 249 248 246 246 245 244 249 249 248 246 248 249 252 254 255 253 251 252 253 257 261 262 260 259 259 262
282 277 281 284 287 288 292 290 288 276 268 260 254 250 250 254 251 247 248 249 250 248 244 242 243 242 249 251 250 249 250 249 250 251 254 257 258 259 258 258 259 261 262 262 259
282 273 279 277 287 287 291 291 290 287 277 268 262 255 248 249 249 252 252 246 249 249 248 246 243 241 245 250 250 249 251 254 254 253 255 256 256 256 257 259 259 261 262 264 266
277 270 275 275 276 284 286 290 288 288 285 282 273 264 259 255 250 248 252 252 250 248 248 247 246 244 244 245 248 252 251 252 255 255 255 257 254 257 259 258 260 260 262 263 263
270 272 274 280 277 278 284 286 287 282 281 282 281 275 265 262 259 256 254 255 252 252 251 250 248 249 247 245 248 249 254 256 257 258 256 255 256 257 259 259 260 262 263 263 263
270 270 271 275 278 278 282 286 286 282 282 283 284 279 276 270 264 262 260 257 258 257 257 255 253 251 250 248 250 251 254 256 257 257 256 256 258 260 259 261 263 264 265 266 266
266 267 270 270 278 277 278 284 286 289 289 284 287 285 278 277 273 269 266 265 262 262 261 260 257 256 253 251 249 251 252 254 255 256 256 256 257 258 262 263 264 266 267 267 267
Height
10758 10756 10754 10752 10750 10748 10745 10742 10740 10737 10734 10732 10729 10723 10716 10705 10685 10673 10678 10695 10702 10712 10724 10741 10762 10775 10787 10798 10811 10818 10830 10850 10861 10864 10867 10867 10876 10880 10887 10895 10904 10904 10912 10922 10928
10749 10747 10745 10743 10740 10738 10736 10733 10730 10726 10723 10718 10712 10704 10694 10679 10656 10644 10645 10648 10664 10676 10698 10715 10732 10746 10767 10779 10790 10801 10820 10841 10841 10847 10852 10852 10858 10868 10872 10884 10890 10892 10903 10909 10913
10740 10738 10737 10734 10731 10729 10726 10723 10720 10716 10712 10707 10700 10691 10678 10658 10632 10615 10610 10615 10627 10642 10660 10682 10703 10725 10746 10758 10773 10789 10810 10815 10824 10827 10831 10832 10844 10862 10864 10872 10877 10883 10886 10896 10902
10731 10729 10728 10725 10722 10719 10716 10713 10710 10706 10701 10696 10688 10677 10663 10643 10616 10597 10592 10595 10606 10623 10639 10658 10679 10705 10725 10742 10753 10769 10787 10793 10802 10809 10813 10828 10831 10854 10855 10864 10863 10868 10875 10884 10893
10723 10720 10718 10715 10713 10710 10707 10704 10700 10695 10691 10685 10677 10666 10652 10633 10607 10588 10583 10585 10594 10611 10627 10642 10661 10681 10701 10718 10731 10754 10766 10776 10784 10790 10800 10820 10831 10837 10843 10848 10853 10856 10863 10871 10876
10712 10710 10708 10706 10704 10701 10698 10694 10690 10686 10682 10676 10669 10658 10644 10627 10606 10587 10580 10580 10587 10600 10619 10637 10652 10666 10682 10699 10717 10734 10746 10761 10769 10780 10793 10807 10809 10813 10828 10834 10843 10842 10851 10855 10860
10702 10700 10698 10697 10695 10692 10688 10685 10681 10678 10674 10668 10662 10652 10640 10626 10608 10591 10581 10581 10586 10597 10613 10630 10645 10660 10673 10691 10705 10720 10737 10748 10760 10768 10781 10787 10795 10808 10812 10818 10827 10833 10837 10841 10848
10692 10689 10687 10686 10684 10682 10679 10676 10673 10670 10666 10662 10656 10649 10640 10629 10614 10598 10588 10586 10589 10597 10611 10627 10644 10659 10672 10680 10698 10710 10723 10735 10744 10755 10763 10768 10790 10790 10794 10799 10811 10820 10824 10827 10833
10683 10679 10677 10675 10675 10672 10669 10667 10665 10662 10659 10656 10651 10646 10639 10632 10621 10609 10597 10593 10595 10602 10611 10625 10640 10653 10666 10678 10690 10701 10715 10725 10731 10739 10745 10760 10772 10772 10773 10784 10798 10811 10809 10803 10816
10674 10668 10666 10666 10663 10662 10661 10659 10657 10655 10654 10650 10647 10643 10639 10634 10627 10618 10608 10602 10601 10607 10616 10627 10639 10652 10664 10675 10686 10694 10703 10709 10717 10724 10738 10748 10754 10758 10758 10774 10782 10792 10785 10787 10798
10665 10658 10654 10653 10653 10654 10654 10653 10651 10649 10647 10645 10642 10639 10637 10634 10631 10625 10619 10612 10610 10612 10619 10629 10640 10651 10658 10667 10673 10684 10691 10702 10710 10715 10727 10734 10740 10745 10745 10756 10766 10771 10770 10770 10777
10655 10649 10643 10641 10641 10642 10644 10643 10643 10642 10641 10639 10637 10635 10634 10632 10630 10628 10625 10622 10618 10618 10622 10629 10636 10642 10651 10660 10668 10676 10687 10688 10693 10700 10713 10722 10725 10730 10729 10738 10747 10749 10752 10753 10755
10645 10639 10632 10630 10630 10631 10633 10634 10633 10633 10633 10633 10631 10630 10629 10628 10627 10627 10627 10625 10624 10622 10623 10626 10630 10639 10647 10653 10658 10665 10673 10678 10685 10690 10699 10708 10714 10711 10714 10717 10727 10734 10734 10740 10735
10636 10631 10624 10620 10621 10620 10621 10622 10623 10624 10625 10624 10624 10624 10624 10624 10623 10623 10624 10625 10625 10624 10625 10626 10629 10632 10637 10643 10649 10657 10662 10666 10674 10680 10688 10692 10698 10701 10701 10706 10709 10713 10713 10718 10720
10627 10621 10616 10611 10611 10611 10611 10612 10612 10612 10615 10616 10617 10617 10618 10618 10617 10618 10619 10620 10622 10624 10625 10627 10627 10629 10634 10637 10643 10650 10653 10659 10667 10671 10673 10681 10686 10687 10687 10689 10691 10693 10696 10701 10703
10617 10611 10607 10602 10599 10599 10599 10600 10600 10602 10602 10605 10607 10608 10609 10611 10612 10612 10613 10614 10617 10619 10622 10624 10626 10627 10629 10633 10637 10639 10644 10649 10653 10653 10665 10666 10669 10675 10669 10671 10674 10677 10682 10684 10683
10604 10600 10597 10593 10589 10587 10587 10588 10588 10589 10591 10593 10596 10598 10600 10602 10603 10604 10606 10607 10609 10612 10614 10617 10621 10622 10625 10627 10629 10630 10633 10637 10640 10644 10653 10648 10654 10659 10654 10654 10658 10665 10667 10667 10666
10592 10588 10585 10583 10579 10576 10574 10574 10575 10576 10578 10581 10583 10586 10589 10593 10595 10596 10596 10598 10599 10603 10607 10610 10613 10613 10615 10618 10620 10622 10624 10627 10629 10631 10636 10637 10643 10641 10642 10640 10646 10646 10648 10650 10650
10580 10577 10574 10571 10569 10565 10562 10561 10562 10563 10565 10567 10570 10571 10573 10577 10581 10584 10585 10587 10589 10592 10596 10598 10601 10603 10608 10609 10611 10613 10618 10615 10618 10621 10627 10627 10628 10627 10622 10625 10630 10631 10631 10637 10639
10564 10564 10562 10559 10557 10554 10551 10549 10548 10549 10550 10552 10555 10556 10558 10563 10564 10567 10570 10574 10574 10583 10583 10582 10591 10590 10593 10598 10600 10601 10601 10602 10606 10611 10615 10618 10618 10614 10607 10622 10618 10618 10616 10623 10624
10550 10549 10549 10547 10544 10543 10540 10537 10536 10535 10537 10538 10540 10542 10541 10546 10549 10550 10551 10557 10559 10566 10569 10568 10576 10578 10577 10582 10585 10586 10588 10588 10589 10596 10599 10603 10604 10602 10601 10603 10602 10604 10603 10605 10606
10535 10535 10535 10535 10532 10530 10529 10526 10524 10524 10523 10524 10525 10527 10529 10529 10531 10531 10530 10540 10543 10546 10549 10554 10559 10562 10560 10564 10568 10569 10571 10572 10574 10582 10583 10586 10595 10588 10591 10583 10587 10586 10586 10589 10596
10519 10521 10521 10521 10520 10519 10515 10514 10511 10511 10511 10510 10511 10512 10512 10512 10514 10513 10508 10524 10523 10524 10531 10536 10539 10543 10548 10546 10545 10551 10554 10558 10561 10565 10574 10568 10582 10564 10571 10565 10574 10569 10569 10573 10577
10504 10506 10505 10507 10506 10506 10504 10502 10501 10497 10498 10497 10497 10496 10495 10494 10495 10497 10491 10497 10501 10507 10508 10512 10518 10522 10529 10528 10526 10531 10537 10539 10541 10550 10555 10555 10553 10549 10554 10553 10549 10554 10556 10557 10558
10488 10490 10492 10491 10491 10492 10491 10489 10487 10487 10485 10483 10480 10479 10479 10478 10477 10474 10475 10472 10477 10482 10485 10490 10497 10496 10506 10510 10507 10514 10517 10520 10522 10530 10532 10534 10531 10535 10530 10533 10536 10535 10539 10539 10540
10474 10477 10477 10477 10478 10476 10474 10475 10472 10471 10469 10468 10464 10462 10460 10459 10457 10452 10452 10451 10452 10458 10460 10466 10470 10472 10483 10483 10486 10494 10498 10498 10501 10507 10511 10512 10518 10511 10510 10517 10520 10518 10516 10516 10517
10459 10461 10462 10463 10463 10461 10462 10460 10458 10455 10453 10450 10448 10444 10441 10438 10435 10432 10431 10431 10433 10433 10438 10440 10443 10447 10454 10456 10466 10474 10469 10476 10481 10484 10488 10493 10496 10493 10500 10503 10498 10497 10494 10493 10498